Regional Weather Roundup
Issued by NWS

Home | Current Version | Previous Version | Graphics & Text | Print | Product List | Glossary On
Versions: 1 2 3 4 5 6 7 8 9 10 11 12 13 14 15 16 17 18 19 20 21 22 23 24 25 26 27 28 29 30 31 32 33 34 35 36 37 38 39 40 41 42 43 44 45 46 47 48 49 50
341
ASUS43 KMPX 030710
RWRMN
WEATHER ROUNDUP FOR MINNESOTA
NATIONAL WEATHER SERVICE TWIN CITIES/CHANHASSEN MN
200 AM CDT TUE MAY 03 2016


NOTE: "FAIR" INDICATES FEW OR NO CLOUDS BELOW 12,000 FEET WITH NO
SIGNIFICANT WEATHER AND/OR OBSTRUCTIONS TO VISIBILITY. N/A MEANS
CURRENT SKY AND/OR WEATHER CONDITIONS ARE NOT AVAILABLE.

MNZ060>063-068>070-030800-
   Twin Cities Metro

CITY           SKY/WX    TMP DP  RH WIND       PRES   REMARKS
TWIN CITIES    CLEAR     53  36  52 W5        29.98F
ST PAUL        CLEAR     50  38  63 N3        29.98F
CRYSTAL        CLEAR     53  37  54 SW6       29.96F
BLAINE         CLEAR     52  36  54 SW5       29.97S
EDEN PRAIRIE   CLEAR     50  35  56 SW6       29.97F
SOUTH ST PAUL  CLEAR     52  36  54 W6        29.97F
LAKE ELMO      FAIR      43  37  81 CALM      29.98F
$$
MNZ001>005-007-008-013>017-022>024-027-028-030800-
   Northwest Minnesota

CITY           SKY/WX    TMP DP  RH WIND       PRES   REMARKS
BEMIDJI        CLOUDY    49  35  58 W8        29.91F
HALLOCK        CLOUDY    54  36  50 W13       29.89S
ROSEAU         PTCLDY    54  37  54 SW10      29.86F
WARROAD        CLOUDY    52  36  54 SW8       29.85F
THIEF RVR FALL CLOUDY    52  34  50 W9        29.93F
CROOKSTON      CLOUDY    52  36  54 W8        29.94S
FOSSTON        CLOUDY    50  36  57 W7        29.94F
DETROIT LAKES  PTCLDY    52  36  54 W7        29.97F
MOORHEAD       PTCLDY    52  37  58 W5        29.97F
PARK RAPIDS    CLOUDY    47  32  56 W5        29.94F
MAHNOMEN       FAIR      48  36  62 W8        29.94F
$$
MNZ006-009>011-018-025>026-030800-
   North Central Minnesota

CITY           SKY/WX    TMP DP  RH WIND       PRES   REMARKS
BAUDETTE       CLOUDY    49  30  48 SW6       29.85F
FLAG ISLAND    CLOUDY    54  32  43 W14       29.80F
INTL FALLS     CLOUDY    41  30  65 SW7       29.83F
WASKISH        CLOUDY    52  36  54 SW7       29.88F
BIG FORK       CLOUDY    37  30  75 CALM      29.89F
LONGVILLE      CLOUDY    41  36  81 CALM      29.92F
GRAND RAPIDS   CLOUDY    54  28  37 SW7       29.91F
CRANE LAKE     MOCLDY    32  30  93 CALM      29.87F
ORR            PTCLDY    48  21  34 CALM      29.84F
COOK           CLOUDY    39  28  65 CALM      29.88F
WALKER         FAIR      50  33  51 W8        29.92F
$$
MNZ012-019>021-037-030800-
   Northeast Minnesota

CITY           SKY/WX    TMP DP  RH WIND       PRES   REMARKS
DULUTH         CLEAR     45  30  55 W8        29.90F
ELY            CLOUDY    45  30  57 SW7       29.86F
HIBBING        CLOUDY    33  30  88 CALM      29.88F
EVELETH        CLOUDY    39  32  75 CALM      29.90F
DULUTH HARBOR  CLEAR     41  37  87 S5        29.92F
TWO HARBORS    CLEAR     37  34  87 CALM      29.88F
SILVER BAY     CLEAR     34  30  86 CALM      29.87F
GRAND MARAIS     N/A     38  33  82 SW6       29.86F
G MARAIS ARPRT PTCLDY    43  25  49 SW5       29.86F
$$
MNZ029>031-032-039>041-046>048-054>057-064-030800-
   West Central Minnesota

CITY           SKY/WX    TMP DP  RH WIND       PRES   REMARKS
FERGUS FALLS   CLOUDY    50  36  57 N3        29.96S
WHEATON        CLEAR     48  39  71 W3        30.01F
MORRIS         CLEAR     48  34  57 W7        29.98S
ALEXANDRIA     CLEAR     45  34  65 W6        29.98F
ELBOW LAKE     FAIR      48  39  73 CALM      29.99S
WADENA         CLOUDY    46  32  57 W6        29.95F
GLENWOOD       CLEAR     48  34  57 W7        29.98F
APPLETON       CLEAR     46  37  71 W7        29.98S
BENSON         PTCLDY    41  36  81 CALM      29.98S
ORTONVILLE     CLEAR     48  39  71 W7        29.99S
MADISON        CLEAR     46  36  66 W6        29.99S
WILLMAR        FAIR      46  36  66 CALM      30.00S
$$
MNZ033>034-036-042>043-049>051-058-059-030800-
   Central Minnesota

CITY           SKY/WX    TMP DP  RH WIND       PRES   REMARKS
ST CLOUD       CLEAR     43  36  76 CALM      29.96F
SAUK CENTRE    FAIR      43  32  66 CALM      29.97F
PAYNESVILLE    CLEAR     45  36  70 CALM      29.98S
AITKIN         CLEAR     54  28  37 SW5       29.92F
PINE RIVER     CLOUDY    41  34  75 CALM      29.97F
BRAINERD       CLEAR     46  31  55 SW3       29.94F
STAPLES        CLEAR     45  30  57 W5        29.95F
LONG PRAIRIE   FAIR      41  34  75 SW5       29.97F
LITTLE FALLS   CLEAR     43  32  65 CALM      29.96F
LITCHFIELD     CLEAR     48  37  66 CALM      29.98F
BUFFALO        CLEAR     49  37  63 CALM      29.99S
MAPLE LAKE     CLEAR     51  39  64 SW3       29.98F
HUTCHINSON     CLOUDY    51  39  64 SW5       29.99F
$$
MNZ037-044-045-052-053-030800-
   East Central Minnesota

CITY           SKY/WX    TMP DP  RH WIND       PRES   REMARKS
PRINCETON      CLEAR     39  36  87 CALM      29.97S
MORA           CLEAR     45  37  76 SW3       29.97F
CAMBRIDGE      CLEAR     46  34  61 CALM      29.95S
RUSH CITY      CLEAR     46  34  62 SW3       29.95F
MOOSE LAKE     CLEAR     41  34  75 SW5       29.91F
HINCKLEY       FAIR      41  36  81 CALM      29.95S
CLOQUET        CLEAR     52  28  40 SW8       29.91F
MCGREGOR       CLEAR     48  34  57 SW5       29.93F
$$
MNZ071>073-080-081-089-090-097-098-030800-
   Southwest Minnesota

CITY           SKY/WX    TMP DP  RH WIND       PRES   REMARKS
MONTEVIDEO     CLEAR     48  36  61 W6        30.01S
GRANITE FALLS  CLEAR     49  38  65 SW9       30.01S
CANBY          CLEAR     51  41  70 SW7       30.01S
MARSHALL       CLEAR     49  38  65 W10       30.00F
REDWOOD FALLS  CLEAR     51  37  58 W9        29.99F
OLIVIA         CLEAR     43  34  70 SW6       29.99S
PIPESTONE      CLEAR     45  39  81 CALM      30.02S
WINDOM         PTCLDY    46  39  76 CALM      30.01F
WORTHINGTON    CLEAR     48  39  71 SW7       30.02F
JACKSON        CLEAR     45  36  70 W5        30.02F
TRACY          CLEAR     49  40  72 SW9       30.01S
SLAYTON        CLEAR     49  38  64 W8        30.02F
$$
MNZ065>067-074>077-082>085-091>093-030800-
   South Central Minnesota

CITY           SKY/WX    TMP DP  RH WIND       PRES   REMARKS
MANKATO        CLEAR     52  36  54 W6        29.99F
NEW ULM        CLEAR     46  39  76 SW6       30.00S
ST JAMES       PTCLDY    45  36  70 SW5       30.01F
FAIRMONT       PTCLDY    45  36  70 SW6       30.01S
GLENCOE        CLEAR     52  41  65 SW3       29.98F
FARIBAULT      CLEAR     43  39  87 S2        30.00S
OWATONNA       CLEAR     45  37  76 S5        30.00F
WASECA         CLEAR     41  36  81 CALM      30.01F
ALBERT LEA     PTCLDY    46  43  87 SW3       30.01S
$$
MNZ078>079-086>088-094>096-030800-
   Southeast Minnesota

CITY           SKY/WX    TMP DP  RH WIND       PRES   REMARKS
ROCHESTER      PTCLDY    47  40  76 SW10      30.00F
RED WING       CLEAR     43  37  81 CALM      29.97F
STANTON        CLEAR     43  35  74 CALM      29.97F
DODGE CENTER   PTCLDY    39  36  87 W7        30.00F
WINONA         CLEAR     46  43  87 CALM      29.99S
AUSTIN         PTCLDY    45  37  76 CALM      30.00F
PRESTON        CLEAR     48  38  66 W13       30.01S
$$
ABBREVIATIONS USED IN REMARKS
   TC - TEMPERATURES IN CELSIUS
  WCI - WIND CHILL INDEX
   HX - HEAT INDEX
  VSB - VISIBILITY
$$




USA.gov is the U.S. government's official web portal to all federal, state and local government web resources and services.